Valdosta, GA

8:08 AM EST on December 08, 2019 (GMT -0500)
Moody Air Force Base

Weather History for KVAD - October, 2019

Change the Weather History Date:

Tuesday, October 22, 2019

  Actual Average Record
Temperature  
Mean Temperature 70 °F -  
Max Temperature 81 °F 76 °F 86 °F (2003)
Min Temperature 59 °F 55 °F 41 °F (2011)
Cooling Degree Days 6    
Growing Degree Days 20 (Base 50)    
Moisture  
Dew Point 71 °F    
Average Humidity 94    
Maximum Humidity 100    
Minimum Humidity 58    
Precipitation  
Precipitation 0.02 in - - ()
Sea Level Pressure  
Sea Level Pressure 29.94 in    
Wind  
Wind Speed 5 mph (SSW)    
Max Wind Speed 20 mph    
Max Gust Speed -    
Visibility 6 miles    
Events Fog , Rain    
Averages and records for this station are not official NWS values.
T = Trace of Precipitation, MM = Missing Value Source: NWS Daily Summary

Daily Weather History Graph

Daily Weather History Graph

Search for Another Location

Airport or City:

Astronomy

Oct. 22, 2019 Rise Set
Actual Time 7:40 AM EDT 6:53 PM EDT
Civil Twilight 7:15 AM EDT 7:18 PM EDT
Nautical Twilight 6:47 AM EDT 7:46 PM EDT
Astronomical Twilight 6:19 AM EDT 8:14 PM EDT
Moon 1:21 AM EDT (10/22) 3:31 PM EDT (10/22)
Length of Visible Light 12h 02m
Length of Day
11h 13m
Last Quarter, 37% of the Moon is Illuminated
Oct 22
Last Quarter
Oct 27
New
Nov 4
First Quarter
Nov 12
Full
Nov 19
Last Quarter

Hourly Weather History & Observations

Time (EDT) Temp. Heat Index Dew Point Humidity Pressure Visibility Wind Dir Wind Speed Gust Speed Precip Events Conditions
12:56 AM 73.2 °F - 73.2 °F 100% 29.97 in 7.0 mi Calm Calm - N/A   Overcast
1:12 AM 73.4 °F - 73.4 °F 100% 29.97 in 4.0 mi Calm Calm - N/A   Overcast
1:16 AM 73.4 °F - 73.4 °F 100% 29.98 in 2.5 mi Calm Calm - N/A   Overcast
1:22 AM 73.4 °F - 73.4 °F 100% 29.98 in 1.8 mi Calm Calm - N/A   Overcast
1:28 AM 73.4 °F - 73.4 °F 100% 29.98 in 1.2 mi Calm Calm - N/A   Overcast
1:30 AM 73.4 °F - 73.4 °F 100% 29.98 in 1.0 mi Calm Calm - N/A   Overcast
1:34 AM 73.4 °F - 73.4 °F 100% 29.98 in 0.9 mi Calm Calm - N/A   Mist
1:36 AM 73.4 °F - 73.4 °F 100% 29.98 in 0.8 mi Calm Calm - N/A   Mist
1:40 AM 73.4 °F - 73.4 °F 100% 29.98 in 0.8 mi Calm Calm - N/A   Mist
1:56 AM 73.4 °F - 73.4 °F 100% 29.97 in 0.8 mi Calm Calm - N/A   Mist
2:06 AM 73.4 °F - 73.4 °F 100% 29.97 in 0.8 mi Calm Calm - N/A   Mist
2:12 AM 73.4 °F - 73.4 °F 100% 29.96 in 0.6 mi Calm Calm - N/A   Mist
2:14 AM 73.4 °F - 73.4 °F 100% 29.96 in 0.6 mi Calm Calm - N/A   Mist
2:28 AM 73.4 °F - 73.4 °F 100% 29.96 in 0.6 mi Calm Calm - N/A   Mist
2:52 AM 73.4 °F - 73.4 °F 100% 29.94 in 0.4 mi Calm Calm - N/A Fog Fog
2:56 AM 73.2 °F - 73.2 °F 100% 29.94 in 0.4 mi Calm Calm - N/A Fog Fog
3:12 AM 73.4 °F - 73.4 °F 100% 29.93 in 0.5 mi Calm Calm - N/A Fog Fog
3:24 AM 73.4 °F - 73.4 °F 100% 29.94 in 0.4 mi Calm Calm - N/A Fog Fog
3:38 AM 73.4 °F - 73.4 °F 100% 29.94 in 0.5 mi SSE 4.6 mph - N/A Fog Fog
3:40 AM 73.4 °F - 73.4 °F 100% 29.94 in 0.4 mi SSE 5.8 mph - N/A Fog Fog
3:56 AM 73.4 °F - 73.4 °F 100% 29.94 in 0.4 mi South 6.9 mph - N/A Fog Fog
4:04 AM 73.4 °F - 73.4 °F 100% 29.94 in 0.5 mi South 8.1 mph - N/A Fog Fog
4:22 AM 73.4 °F - 73.4 °F 100% 29.91 in 0.6 mi South 8.1 mph - N/A   Mist
4:24 AM 73.4 °F - 73.4 °F 100% 29.91 in 0.8 mi South 8.1 mph - N/A   Mist
4:28 AM 73.4 °F - 73.4 °F 100% 29.91 in 0.6 mi South 10.4 mph - N/A   Mist
4:31 AM 73.4 °F - 73.4 °F 100% 29.91 in 0.6 mi South 12.7 mph - N/A Rain Light Rain
4:33 AM 73.4 °F - 73.4 °F 100% 29.91 in 0.8 mi South 15.0 mph - N/A Rain Light Rain
4:35 AM 73.4 °F - 73.4 °F 100% 29.90 in 0.9 mi SSE 15.0 mph - N/A Rain Light Rain
4:37 AM 73.4 °F - 73.4 °F 100% 29.89 in 1.2 mi SSE 16.1 mph - N/A Rain Light Rain
4:39 AM 73.4 °F - 73.4 °F 100% 29.88 in 1.9 mi SSE 17.3 mph - N/A Rain Light Rain
4:41 AM 73.4 °F - 73.4 °F 100% 29.87 in 3.0 mi SSE 17.3 mph - N/A Rain Light Rain
4:43 AM 73.4 °F - 73.4 °F 100% 29.86 in 5.0 mi SSE 19.6 mph - N/A Rain Light Rain
4:45 AM 73.4 °F - 73.4 °F 100% 29.86 in 7.0 mi SSE 17.3 mph - N/A Rain Light Rain
4:47 AM 73.4 °F - 73.4 °F 100% 29.86 in 7.0 mi SSE 13.8 mph - N/A Rain Light Rain
4:52 AM 73.4 °F - 73.4 °F 100% 29.87 in 10.0 mi SSE 11.5 mph - N/A Rain Light Rain
4:56 AM 73.0 °F - 73.0 °F 100% 29.87 in 10.0 mi SSE 12.7 mph - 0.02 in Rain Light Rain
4:57 AM 73.4 °F - 73.4 °F 100% 29.88 in 10.0 mi SSE 12.7 mph - N/A   Scattered Clouds
5:00 AM 73.4 °F - 73.4 °F 100% 29.88 in 10.0 mi South 13.8 mph - N/A   Scattered Clouds
5:01 AM 73.4 °F - 73.4 °F 100% 29.88 in 10.0 mi South 11.5 mph - N/A   Mostly Cloudy
5:07 AM 73.4 °F - 73.4 °F 100% 29.88 in 10.0 mi South 13.8 mph - N/A   Scattered Clouds
5:14 AM 73.4 °F - 73.4 °F 100% 29.88 in 10.0 mi SSE 10.4 mph - N/A   Mostly Cloudy
5:18 AM 73.4 °F - 73.4 °F 100% 29.87 in 3.0 mi SSE 10.4 mph - N/A   Mostly Cloudy
5:23 AM 73.4 °F - 73.4 °F 100% 29.87 in 10.0 mi South 9.2 mph - N/A   Partly Cloudy
5:36 AM 73.4 °F - 73.4 °F 100% 29.88 in 10.0 mi South 10.4 mph - N/A   Scattered Clouds
5:56 AM 72.7 °F - 72.7 °F 100% 29.89 in 10.0 mi South 9.2 mph - 0.00 in   Scattered Clouds
6:40 AM 73.4 °F - 73.4 °F 100% 29.91 in 10.0 mi SSW 8.1 mph - N/A   Mostly Cloudy
6:56 AM 73.2 °F - 73.2 °F 100% 29.92 in 10.0 mi SSW 9.2 mph - N/A   Mostly Cloudy
7:04 AM 73.4 °F - 73.4 °F 100% 29.92 in 10.0 mi SSW 8.1 mph - N/A   Mostly Cloudy
7:10 AM 73.4 °F - 73.4 °F 100% 29.92 in 10.0 mi SSW 9.2 mph - N/A   Scattered Clouds
7:11 AM 73.4 °F - 73.4 °F 100% 29.92 in 10.0 mi SSW 8.1 mph - N/A   Mostly Cloudy
7:56 AM 72.3 °F - 72.3 °F 100% 29.94 in 10.0 mi SSW 10.4 mph - N/A   Scattered Clouds
8:56 AM 73.6 °F - 73.6 °F 100% 29.96 in 10.0 mi SSW 9.2 mph - N/A   Clear
9:56 AM 73.9 °F - 73.9 °F 100% 29.97 in 10.0 mi West 8.1 mph - N/A   Scattered Clouds
10:56 AM 75.7 °F - 75.7 °F 100% 29.97 in 10.0 mi West 6.9 mph - N/A   Mostly Cloudy
11:56 AM 77.2 °F - 75.0 °F 93% 29.97 in 10.0 mi West 9.2 mph - N/A   Mostly Cloudy
12:02 PM 77.0 °F - 75.2 °F 94% 29.97 in 10.0 mi SW 9.2 mph - N/A Rain Light Rain
12:13 PM 77.0 °F - 75.2 °F 94% 29.97 in 10.0 mi SW 9.2 mph - N/A   Scattered Clouds
12:26 PM 77.0 °F - 75.2 °F 94% 29.97 in 10.0 mi SW 6.9 mph - N/A   Mostly Cloudy
12:56 PM 76.8 °F - 75.2 °F 95% 29.96 in 10.0 mi West 5.8 mph - 0.00 in   Mostly Cloudy
1:56 PM 79.5 °F - 74.8 °F 86% 29.94 in 10.0 mi WNW 10.4 mph - N/A   Mostly Cloudy
2:45 PM 80.6 °F 85.4 °F 73.4 °F 79% 29.94 in 10.0 mi NW 10.4 mph - N/A   Mostly Cloudy
2:56 PM 80.2 °F 84.3 °F 72.3 °F 77% 29.94 in 10.0 mi WNW 12.7 mph - N/A   Mostly Cloudy
3:56 PM 80.2 °F 83.2 °F 69.4 °F 69% 29.94 in 10.0 mi West 8.1 mph - N/A   Clear
4:56 PM 79.7 °F - 65.5 °F 62% 29.94 in 10.0 mi WNW 8.1 mph - N/A   Clear
5:56 PM 77.2 °F - 61.7 °F 59% 29.95 in 10.0 mi WNW 11.5 mph - N/A   Clear
6:56 PM 71.4 °F - 59.9 °F 67% 29.98 in 10.0 mi WNW 5.8 mph - N/A   Clear
7:56 PM 69.3 °F - 57.4 °F 66% 30.01 in 10.0 mi WNW 4.6 mph - N/A   Clear
8:56 PM 62.4 °F - 56.1 °F 80% 30.03 in 10.0 mi NW 5.8 mph - N/A   Clear
9:56 PM 64.0 °F - 48.9 °F 58% 30.04 in 10.0 mi NW 6.9 mph - N/A   Clear
10:56 PM 61.9 °F - 48.2 °F 61% 30.06 in 10.0 mi Calm Calm - N/A   Clear
11:56 PM 59.5 °F - 48.9 °F 68% 30.08 in 10.0 mi WNW 5.8 mph - N/A   Clear